Wind_Speed
3 3 1 1 2 2 1 1 1 1 1 0 1 1 3 1 2 2 5 5 3 4 2 2 7 6 2 1 2 3 3 1 3 2 2 3 7 11 8 9 14 15 15 13 11 11 11 12 10 8 8 9 9 9 11 12 12 12 12 11 11 12 13 14 14 13 14 14 14 14 15 16 16 16 16 17 17 16 16 17 17 16 17 16 17 17 17 16 17 17 17 18 19 19 19 20 20
2 2 3 4 3 1 0 1 2 1 2 1 2 1 3 3 3 5 6 4 2 5 4 5 7 4 2 2 2 1 1 3 6 4 4 8 13 10 7 10 14 14 14 13 12 11 10 11 10 8 9 9 10 10 11 12 13 14 13 12 12 12 13 14 14 14 15 14 15 15 16 16 16 16 16 17 16 16 16 16 16 16 16 16 17 17 17 17 16 16 16 16 18 19 19 19 19
2 2 4 4 2 1 0 1 2 0 2 1 2 1 3 4 5 4 4 4 6 8 7 7 7 2 1 3 2 1 1 4 3 4 6 12 13 10 9 10 12 13 12 12 12 11 9 10 10 10 11 11 10 10 11 13 14 15 14 12 12 12 13 13 14 14 14 14 15 15 15 15 15 15 16 16 16 15 16 16 16 16 16 16 16 16 16 16 16 15 15 15 17 18 17 17 17
1 2 3 2 1 1 1 2 1 2 2 1 1 3 4 5 5 5 6 8 8 7 7 8 6 1 2 2 2 1 1 3 4 4 7 12 11 12 12 12 12 10 10 11 11 10 9 10 10 11 12 12 11 11 12 13 14 14 13 12 12 12 12 11 12 13 13 13 13 14 14 14 15 15 16 16 15 15 15 16 15 15 15 15 15 15 15 15 15 14 15 15 15 16 16 16 16
4 4 4 0 2 0 1 1 1 2 1 1 1 3 5 4 6 7 8 8 7 3 4 6 3 2 2 1 1 1 2 4 4 4 9 12 11 15 13 13 12 10 10 9 9 9 9 10 11 12 12 12 12 12 13 13 13 12 12 12 12 11 11 11 12 13 12 12 13 14 13 14 14 14 15 15 16 15 15 15 14 14 14 15 14 14 14 14 14 14 14 14 13 13 14 14 14
6 7 7 3 0 1 1 2 2 1 2 1 2 3 2 4 6 9 9 6 3 1 1 4 1 3 2 2 1 1 3 3 4 6 9 12 13 15 14 13 12 11 11 9 10 9 9 11 12 12 12 12 12 13 13 13 12 11 12 12 12 11 12 13 13 12 12 12 13 14 14 14 15 15 15 15 16 15 14 15 14 14 14 14 13 13 13 13 13 12 12 12 11 11 12 13 13
2 2 5 3 2 1 3 2 1 1 2 1 2 3 2 5 7 11 11 6 3 1 1 2 1 3 2 2 2 1 2 2 2 6 9 13 15 14 14 13 12 12 11 11 11 9 11 12 11 11 11 12 13 14 13 12 12 11 10 12 13 13 13 12 12 12 12 12 13 14 14 14 14 14 14 14 15 14 14 14 14 14 13 13 13 12 13 13 12 12 11 11 11 11 11 12 12
1 0 1 1 1 1 2 2 1 1 1 1 3 2 2 5 8 10 11 6 3 3 3 3 3 3 2 1 2 3 1 3 1 6 10 13 15 14 13 13 13 13 12 12 11 10 12 12 12 11 11 12 13 14 13 12 11 10 9 11 12 12 12 11 11 12 12 11 12 13 13 13 13 13 13 14 14 14 14 14 14 13 13 13 12 11 12 12 12 11 11 10 10 11 11 11 11
3 2 1 2 1 1 1 2 1 1 1 2 3 2 2 3 8 9 11 5 1 4 5 5 3 3 4 4 0 3 1 2 3 9 13 13 14 13 12 12 12 13 13 13 12 11 12 13 12 11 12 12 13 13 12 11 11 10 11 12 12 12 12 11 11 11 11 10 9 10 11 10 11 13 13 13 13 13 13 13 13 12 12 12 12 11 11 11 11 10 10 10 10 11 11 10 10
2 2 1 1 1 2 2 2 1 1 1 1 3 2 1 5 7 7 9 5 3 5 5 3 2 1 4 4 1 2 2 3 7 12 13 13 14 11 11 11 12 13 13 14 13 11 12 13 12 12 12 12 13 13 12 11 11 10 12 13 12 12 11 10 8 8 11 9 8 8 9 10 11 12 12 13 14 13 12 12 12 12 11 11 11 10 10 10 10 9 9 9 9 10 9 9 9
1 1 0 2 3 3 2 2 2 1 0 2 3 3 3 7 8 5 5 3 3 4 5 4 3 4 4 2 1 2 2 5 9 14 14 13 13 11 11 11 12 13 13 14 13 11 12 12 12 12 12 13 13 13 12 11 11 12 13 13 12 14 13 11 8 6 8 9 8 9 10 11 11 11 12 14 14 12 12 11 11 11 11 10 10 9 9 9 9 9 8 8 8 8 8 8 8
2 1 2 3 3 2 1 2 1 1 2 2 2 4 4 8 9 7 7 4 4 5 6 6 3 5 4 2 2 3 4 7 11 14 14 12 12 11 10 10 12 12 12 14 13 12 12 12 11 11 12 13 13 12 12 11 11 11 13 13 12 13 13 12 10 7 7 8 10 11 11 11 10 10 12 13 12 11 12 11 10 10 10 9 9 8 9 9 8 8 7 7 7 7 6 6 6
2 1 3 3 1 1 0 1 1 3 3 1 2 4 6 9 8 7 7 5 6 7 5 5 4 3 3 2 3 4 6 9 12 14 13 12 11 11 10 10 12 12 12 13 12 12 12 12 11 11 12 12 12 12 11 11 10 9 10 11 9 11 12 11 10 8 7 9 11 10 10 10 10 11 12 12 11 11 11 11 10 10 9 9 9 9 8 8 8 7 6 5 5 5 5 5 5
1 1 2 1 1 0 1 2 1 3 1 3 3 5 6 6 4 4 6 7 7 4 2 4 4 3 2 2 3 5 8 12 14 14 13 12 11 11 10 11 12 12 12 12 12 12 12 12 11 12 12 11 12 11 10 10 9 8 8 8 7 8 10 11 10 9 8 8 9 8 9 9 9 10 10 11 10 10 9 9 9 9 9 9 9 9 8 8 8 7 5 5 5 5 5 5 5
1 1 1 1 2 1 2 1 0 2 0 4 2 4 6 2 1 4 5 6 4 4 3 3 2 1 2 4 3 6 13 15 16 15 14 12 11 11 10 11 12 11 11 12 12 12 12 11 11 12 11 11 11 11 10 9 8 7 7 7 5 7 9 10 10 8 7 6 6 6 7 8 8 9 8 9 9 9 9 8 9 9 9 9 9 9 8 8 8 7 6 5 5 5 5 5 6
1 1 1 2 2 2 2 2 1 2 2 3 1 2 6 3 0 4 1 3 2 4 3 3 3 1 0 1 3 6 17 18 17 16 14 13 12 10 10 11 11 11 11 12 12 12 12 11 11 11 11 11 11 10 10 10 8 7 7 6 6 7 8 10 10 8 7 6 5 5 5 6 7 6 6 7 8 9 9 9 10 10 9 9 9 9 9 9 8 7 6 6 7 6 7 7 6
0 2 2 3 3 2 1 1 1 2 4 4 2 4 7 5 1 2 1 2 1 4 3 2 3 1 1 2 4 8 19 18 18 19 15 14 13 11 11 11 11 11 11 12 12 12 12 12 12 11 11 12 11 10 9 10 9 7 6 7 7 7 8 10 9 8 7 6 5 4 4 5 5 5 5 5 6 8 8 9 9 9 9 9 9 9 9 8 8 7 7 7 7 7 7 7 6
1 2 3 4 2 1 2 3 3 4 5 5 0 5 7 4 4 2 2 4 1 3 4 2 3 3 1 2 1 12 19 18 20 21 17 15 14 12 12 12 12 12 12 13 12 12 12 12 12 11 12 11 11 11 9 9 9 7 7 7 7 8 9 9 9 9 8 7 6 5 5 5 5 4 4 4 6 6 7 7 8 8 8 8 8 8 7 7 6 6 6 6 6 6 6 6 6
1 1 4 2 2 3 4 5 5 4 6 7 3 3 6 3 4 5 4 5 5 5 6 4 5 6 4 2 6 16 20 19 21 21 19 17 16 14 13 12 13 13 13 13 13 13 13 12 13 11 11 12 11 10 8 8 8 7 7 7 7 8 9 8 8 8 8 8 7 5 5 5 5 5 4 5 5 5 6 6 6 6 6 6 6 5 5 5 4 4 4 4 5 5 5 5 6
1 1 4 2 3 2 3 3 5 3 4 7 5 0 4 4 2 4 5 4 6 9 7 7 9 10 8 6 11 18 20 21 22 21 19 18 17 15 14 13 13 14 13 12 12 13 13 12 13 12 12 13 11 10 9 8 7 7 8 8 8 8 8 8 7 7 8 8 8 6 6 6 6 6 5 5 5 4 5 5 5 5 5 4 4 3 3 2 2 3 3 4 4 4 5 5 6
1 1 1 5 1 0 4 3 4 2 2 6 5 1 4 3 2 4 5 5 6 10 9 10 11 11 12 10 14 19 21 22 22 22 20 19 19 17 14 12 12 13 12 12 11 12 13 13 13 13 12 13 11 10 10 8 7 8 9 9 8 8 8 7 7 7 8 8 8 8 7 7 6 6 6 5 5 4 4 4 4 3 3 2 2 2 2 1 2 2 3 4 4 5 5 5 6
2 1 3 5 1 1 3 3 2 1 2 4 4 3 3 1 4 7 8 9 5 3 4 8 9 10 14 13 16 19 20 22 23 23 21 20 21 19 16 13 11 12 12 12 12 12 13 13 13 13 12 12 11 10 9 10 9 8 10 9 9 9 8 7 7 6 8 8 9 8 8 7 7 7 6 6 5 4 4 3 3 3 2 1 2 2 2 2 2 2 2 3 4 4 4 5 6
1 2 2 3 2 2 4 4 1 1 2 4 3 3 3 2 6 5 10 14 3 5 3 3 4 9 15 16 18 19 20 22 24 25 24 22 22 22 19 16 13 12 13 12 12 12 12 13 13 13 13 12 11 10 8 11 11 8 10 10 9 10 9 9 7 7 8 9 9 9 8 7 7 6 6 6 5 4 3 2 2 2 2 2 3 3 3 3 3 3 2 3 4 4 4 4 5
2 4 2 2 1 3 4 4 2 0 3 4 3 3 4 7 5 0 9 15 3 4 3 2 2 10 16 16 17 19 21 24 25 25 26 24 24 23 21 19 16 14 13 13 12 12 13 13 13 13 13 13 12 11 9 10 10 9 10 11 10 10 10 10 9 8 8 9 10 10 10 8 7 6 5 5 5 4 4 3 3 2 3 3 3 3 2 2 2 3 3 3 4 4 5 5 5
3 4 2 1 1 3 3 4 2 0 3 2 2 6 6 5 3 2 10 13 5 2 2 3 5 10 14 14 16 18 20 23 24 23 24 24 24 23 21 19 18 17 15 14 13 13 14 14 14 14 13 13 12 11 10 10 10 10 12 12 12 11 11 11 10 9 9 9 10 10 10 7 6 5 5 6 5 5 5 4 4 3 3 2 2 1 1 1 2 2 3 3 5 5 6 6 7
2 1 1 2 4 5 4 5 2 2 1 1 4 8 5 1 2 6 11 7 3 4 3 4 8 10 11 12 15 17 18 21 23 23 24 23 22 22 22 20 19 19 17 16 15 13 15 16 16 15 14 13 12 11 11 11 11 13 14 14 14 13 12 12 11 10 9 10 10 10 9 7 6 5 5 6 6 5 5 4 3 3 2 1 1 0 1 1 2 3 3 5 6 7 7 8 8
2 3 4 5 6 6 2 5 4 2 2 4 6 8 2 1 2 5 3 2 1 5 5 5 8 10 11 11 12 16 17 20 23 22 23 23 22 22 23 22 21 20 17 17 16 14 14 16 17 16 16 15 13 13 14 14 15 16 16 15 15 14 13 12 12 11 11 11 11 10 9 8 7 6 5 6 6 5 4 3 2 2 1 0 0 1 2 3 3 4 6 6 7 8 9 9 9
4 2 5 6 5 7 5 6 4 2 3 4 6 8 1 3 4 5 1 3 2 6 6 5 8 8 9 11 11 13 15 18 21 21 23 24 23 24 24 23 21 20 18 17 16 14 15 16 18 18 18 17 17 16 17 18 17 17 17 16 15 14 14 13 13 13 12 12 11 10 9 8 7 6 6 6 6 5 4 3 2 1 1 2 2 3 4 5 6 7 9 9 9 9 9 9 9
3 2 4 7 8 10 9 5 1 1 2 2 3 8 6 8 8 4 3 2 3 5 6 5 7 6 7 9 9 10 13 16 19 22 23 24 24 25 25 23 22 20 19 18 17 16 16 17 18 18 19 20 19 19 19 19 18 18 17 16 15 14 14 14 14 13 13 12 11 10 9 8 8 7 6 6 6 5 4 3 2 2 2 2 3 4 5 6 8 9 8 8 9 9 9 8 8
2 4 1 5 8 10 4 2 1 2 1 2 2 7 7 9 9 4 4 3 5 5 7 6 5 5 5 7 8 9 12 16 19 21 23 23 24 24 24 23 21 20 19 18 18 17 17 17 17 17 19 21 21 21 21 20 19 18 17 16 15 14 14 14 14 14 13 12 11 11 10 9 9 8 7 6 5 5 4 3 3 4 4 4 5 6 6 6 7 7 7 8 8 8 8 7 6
3 3 1 3 6 4 1 2 2 4 3 4 4 8 8 5 5 5 4 4 6 6 8 7 6 5 5 7 8 9 12 15 17 19 22 23 23 23 23 23 22 21 19 18 19 19 17 17 18 18 20 22 23 23 22 21 20 18 17 16 15 15 15 14 14 14 14 13 12 11 11 10 10 9 8 6 5 5 5 6 6 6 5 5 6 6 6 6 6 6 6 7 7 6 6 5 6
3 3 4 4 5 2 3 2 2 4 1 6 6 6 7 6 2 2 3 4 6 8 8 7 6 6 6 7 8 8 9 13 16 18 21 22 23 23 23 24 23 22 21 19 20 19 18 17 18 19 21 23 23 24 24 22 21 19 18 17 16 15 15 15 14 14 14 14 13 12 11 11 9 8 8 7 7 8 7 7 7 6 5 5 5 4 4 4 4 5 5 6 6 5 5 5 6
2 4 5 4 5 2 3 1 2 3 1 5 9 6 4 3 0 2 2 5 6 8 8 6 6 6 6 6 7 7 7 10 14 18 22 23 23 23 23 23 24 23 22 21 19 19 19 18 18 18 19 23 25 24 24 23 22 21 20 19 18 16 16 15 15 15 15 14 14 12 11 10 9 9 9 9 9 9 8 8 7 7 6 6 5 4 3 3 4 4 5 5 5 5 5 6 7
3 2 5 4 4 2 1 2 3 3 1 4 9 9 7 7 4 1 3 5 7 8 8 7 6 6 6 6 6 7 7 9 12 18 22 23 23 23 23 23 23 23 22 22 20 19 18 17 17 18 18 20 24 25 24 24 23 22 21 20 19 18 16 16 16 16 16 16 15 14 13 12 12 11 10 10 11 11 10 9 8 7 6 5 5 5 5 5 6 6 6 5 4 5 5 6 6
6 5 6 4 3 2 2 3 2 4 3 5 8 10 12 13 13 7 4 5 7 8 8 7 7 7 6 6 7 8 8 10 12 16 20 22 22 22 22 22 22 23 22 22 21 19 17 16 16 18 18 18 21 23 23 22 20 20 19 16 16 17 16 16 18 18 18 18 17 16 15 15 14 13 13 12 11 12 11 10 9 8 7 7 7 6 7 9 9 8 6 5 4 5 6 7 6
10 9 7 4 4 3 2 3 3 5 5 7 9 11 12 13 16 14 4 6 6 6 6 6 6 6 6 7 7 8 10 11 12 13 15 18 20 20 22 22 23 23 22 22 21 20 19 18 17 17 18 18 19 20 21 21 19 17 17 16 17 19 19 19 19 19 19 19 19 17 16 16 15 14 15 12 9 10 10 9 10 10 8 8 8 8 8 8 7 6 6 6 6 6 7 6 5
8 8 7 4 5 4 3 4 2 1 5 7 7 10 13 13 16 15 4 5 6 7 8 8 7 7 7 8 9 10 11 10 9 9 12 15 18 20 22 22 22 22 22 22 23 23 21 20 19 19 18 18 20 21 22 24 22 19 19 19 20 21 22 21 20 20 20 21 20 18 17 17 17 17 18 15 10 10 10 10 10 10 9 10 10 10 8 7 7 7 7 8 8 7 6 5 3
6 7 6 5 5 4 4 4 3 2 4 7 7 10 13 12 14 15 5 6 9 10 10 10 10 9 7 9 11 10 9 8 8 9 11 14 17 21 23 22 23 23 24 25 25 25 23 21 21 20 19 20 22 23 23 25 26 25 24 23 24 23 23 22 20 19 20 22 20 19 19 18 17 18 19 18 14 12 12 11 11 10 10 12 14 13 12 12 11 9 8 9 9 7 4 3 2
6 6 4 4 4 3 4 5 3 3 4 6 8 10 13 13 13 15 11 9 11 12 12 12 10 9 8 9 10 9 8 9 10 10 12 15 17 20 22 22 24 26 25 27 28 27 25 24 23 21 20 22 23 23 24 25 27 28 26 24 24 24 24 24 21 19 20 23 22 21 21 19 19 20 21 21 18 15 14 15 15 14 13 15 16 14 13 13 11 9 9 8 8 5 3 3 2
4 5 6 5 4 5 5 4 4 3 3 5 8 9 12 13 12 15 14 12 12 11 11 11 8 9 10 8 7 8 10 10 10 10 12 15 16 18 20 22 23 25 25 26 28 29 28 28 27 25 23 22 21 24 28 27 26 27 25 21 20 21 22 21 19 19 20 22 22 22 22 20 20 21 22 22 20 18 17 17 17 15 14 15 15 12 11 10 9 8 6 6 6 4 3 3 2
4 5 8 5 6 8 6 1 1 4 3 2 5 8 10 12 13 15 11 8 10 9 9 9 9 10 9 5 6 9 11 11 10 11 11 14 17 19 21 23 23 24 26 26 29 32 33 34 34 31 28 25 22 23 29 28 23 22 21 19 18 20 22 20 18 18 17 17 19 21 23 21 20 21 21 21 20 19 18 16 15 13 12 13 13 11 11 10 8 7 6 6 5 4 5 4 2
5 5 8 8 9 10 5 1 2 5 5 3 2 7 8 7 11 13 9 6 8 8 9 12 11 10 8 7 9 11 10 10 10 10 10 13 17 19 20 22 23 24 27 28 32 37 39 38 37 36 35 34 31 26 25 26 24 22 22 23 24 23 22 21 21 19 18 19 21 22 23 21 20 22 21 20 19 18 17 15 14 13 12 14 14 14 14 12 10 10 7 5 4 3 4 5 4
5 6 8 9 10 10 8 4 2 5 4 0 1 6 6 4 7 9 7 8 9 8 9 12 11 9 9 10 10 10 10 10 10 10 10 12 15 17 19 23 26 28 31 32 34 39 41 39 38 39 39 38 39 34 26 24 25 24 24 28 28 25 23 21 22 22 19 19 22 23 24 23 20 20 21 21 18 17 17 17 16 15 16 17 16 16 15 12 12 11 8 4 3 3 3 5 5
5 8 12 12 10 11 10 6 4 3 4 4 3 3 6 8 6 4 4 8 11 10 10 10 10 10 10 11 11 11 11 10 9 10 11 13 16 18 21 25 30 36 37 36 38 40 40 40 40 40 40 39 40 39 33 28 25 24 23 25 26 25 24 21 19 21 18 18 22 22 23 25 21 17 17 19 19 19 19 20 18 17 17 16 15 15 14 13 12 10 7 4 3 3 3 5 6
2 7 12 11 9 9 6 4 3 1 3 7 5 4 5 9 5 3 3 10 15 15 12 10 10 11 11 12 12 12 12 11 10 10 11 13 17 21 23 26 33 38 37 38 40 39 38 39 39 39 40 40 40 40 39 32 26 25 24 23 24 23 22 21 18 18 19 19 21 21 23 26 23 19 18 19 20 19 18 19 18 15 14 13 12 13 12 11 10 9 7 6 4 3 4 5 6
3 8 8 5 5 3 2 2 2 1 4 8 6 8 6 10 7 4 4 9 14 14 10 9 9 10 10 11 10 11 10 10 10 11 12 14 16 19 22 24 28 33 35 37 37 36 36 36 37 39 39 40 40 40 41 37 28 26 25 24 24 23 21 20 19 20 20 19 19 22 25 26 24 23 23 22 20 17 16 17 17 16 15 13 12 11 11 11 11 11 11 11 8 5 5 6 7
10 10 9 7 4 2 2 1 1 2 7 5 5 9 6 8 8 7 7 6 9 11 10 9 8 8 9 9 8 9 9 9 9 10 12 14 14 15 18 22 25 28 30 32 33 33 34 34 34 36 36 36 36 35 38 39 32 26 26 25 25 25 22 21 23 24 24 22 21 24 28 27 25 24 24 21 19 16 17 18 18 17 15 14 12 12 12 14 14 14 13 11 10 8 8 9 10
10 8 8 8 4 2 2 1 1 6 5 1 3 8 10 10 6 5 7 5 6 10 12 13 13 10 8 8 8 8 8 7 8 9 10 11 11 14 17 21 23 25 26 29 33 33 33 34 34 31 29 29 28 27 30 33 30 27 27 26 26 25 23 23 27 29 29 28 27 27 28 29 27 25 23 21 19 18 20 21 20 18 15 13 13 14 15 17 15 13 11 10 11 11 11 12 13
5 7 9 6 3 3 4 3 3 7 4 1 2 4 9 12 9 9 10 6 6 10 10 12 12 10 8 7 7 6 5 5 6 7 8 7 9 12 15 18 19 23 27 29 31 32 33 35 34 31 29 29 26 24 27 29 28 27 27 26 26 25 24 24 26 30 31 32 31 30 31 30 28 26 25 22 21 22 24 23 20 17 15 14 15 16 17 17 14 13 12 13 14 14 14 14 13
5 8 8 5 5 5 6 5 3 5 3 2 1 2 6 9 6 10 13 10 9 9 8 9 7 7 6 2 2 2 3 5 6 6 6 6 7 9 11 14 17 22 27 29 30 32 33 34 34 31 29 29 26 24 25 27 28 27 26 26 26 25 25 24 24 26 29 31 31 33 34 32 29 28 26 23 22 25 25 23 19 15 14 14 14 15 15 15 14 14 15 16 16 16 15 15 14
6 5 4 4 6 5 5 5 5 3 1 2 3 2 6 4 2 3 7 7 6 4 4 6 7 8 7 3 3 4 5 6 5 5 7 7 7 9 10 13 18 23 26 27 28 30 31 32 32 29 28 29 29 26 24 26 27 26 25 25 24 24 25 23 22 24 26 29 32 33 35 34 31 29 28 25 23 26 27 23 18 16 14 14 14 15 15 15 15 16 18 18 17 17 16 15 14
4 1 1 3 3 2 1 1 2 1 1 3 5 4 5 2 6 8 6 4 3 4 4 5 8 8 7 6 6 6 6 6 4 5 6 7 7 9 11 12 16 20 23 26 28 29 31 31 30 28 27 27 27 26 24 24 25 23 24 25 24 25 25 22 22 25 26 28 32 34 34 34 32 29 29 26 24 27 29 25 20 17 16 15 15 15 15 16 17 19 19 19 18 17 17 16 15
4 3 4 2 1 2 1 1 2 1 4 4 5 6 6 4 9 11 10 8 5 4 6 7 9 8 6 7 7 6 5 4 4 5 6 7 7 9 11 13 14 17 21 25 28 29 31 31 28 25 22 23 23 24 23 23 23 23 24 24 24 25 25 25 26 28 27 27 31 34 34 34 33 31 30 27 25 28 29 24 20 18 16 16 16 16 17 18 20 20 20 20 19 18 17 16 15
6 6 6 4 2 2 2 3 1 3 7 4 4 8 6 4 6 3 7 12 9 7 7 7 7 7 7 8 8 6 4 3 4 6 7 6 7 9 10 12 14 16 19 22 25 27 28 29 27 22 19 21 22 22 24 26 26 27 27 27 27 26 26 27 28 29 29 28 30 33 34 35 35 33 32 28 26 29 29 24 20 18 16 17 18 18 19 20 21 21 20 20 20 19 18 17 15
2 4 8 5 2 4 4 4 3 4 7 5 4 6 6 8 8 2 4 8 9 10 8 5 7 7 7 8 7 5 3 4 4 5 5 5 6 8 8 9 13 15 16 18 21 23 25 26 23 20 19 19 20 22 27 29 29 30 30 30 31 30 29 29 28 27 29 30 31 32 34 35 36 34 33 30 28 30 29 25 20 17 17 19 20 20 21 22 23 22 21 21 20 19 18 17 15
1 3 8 3 2 3 4 3 1 3 6 6 3 2 5 7 8 8 10 8 8 10 7 7 9 6 3 5 6 4 3 4 4 4 4 4 6 8 8 9 11 13 13 14 15 18 22 22 19 19 20 19 21 25 28 29 29 30 31 31 32 32 31 31 29 28 30 32 33 34 34 36 35 34 33 31 30 31 29 24 19 17 19 22 22 23 24 24 24 23 22 22 20 19 18 16 15
5 7 8 5 2 1 1 3 2 3 5 5 5 5 5 3 4 10 14 12 13 11 7 7 5 2 2 4 4 4 4 4 4 3 4 5 6 7 8 9 9 9 11 12 12 14 18 20 20 20 20 20 23 26 28 29 29 30 30 31 31 31 32 31 30 29 31 33 34 35 35 36 35 35 35 32 30 31 29 23 19 19 22 24 25 26 26 25 25 23 23 22 21 20 18 16 14
9 8 9 10 8 5 4 6 5 3 4 3 3 7 6 3 3 6 10 11 10 6 4 4 2 3 5 4 4 4 4 5 4 3 4 4 5 6 7 8 8 8 10 12 13 13 14 17 18 17 16 17 19 21 24 27 28 28 29 29 30 30 31 31 31 31 32 33 34 36 36 35 34 35 36 34 31 31 28 23 21 21 24 26 27 28 27 27 26 24 23 22 21 20 18 16 15
Wind_Direction
5 352 14 179 129 156 149 328 259 105 269 135 101 222 142 133 354 186 161 150 156 140 137 104 139 132 109 34 88 41 3 211 12 356 111 92 149 151 150 147 143 142 143 147 148 139 139 147 148 151 152 150 140 133 130 127 122 114 102 96 91 83 84 92 97 96 94 92 93 94 93 92 90 92 92 92 92 94 95 94 92 87 83 83 80 79 83 83 81 80 77 76 78 79 80 79 77
8 21 89 116 109 224 193 306 276 117 248 147 128 283 109 150 211 190 163 153 92 114 142 133 136 109 45 46 89 130 118 32 16 47 89 126 143 148 152 147 148 146 142 144 147 142 146 157 156 154 150 144 139 137 132 127 120 109 100 97 91 88 95 98 99 99 95 94 98 96 93 94 91 92 93 92 93 96 98 97 94 89 86 84 81 80 83 85 83 82 82 80 80 79 80 80 78
19 80 112 125 103 324 163 228 268 217 269 15 117 116 130 187 189 165 120 101 92 116 135 133 143 112 110 154 157 226 96 65 83 93 110 143 146 154 156 148 152 148 141 139 143 145 145 157 155 145 143 140 137 138 132 125 116 109 108 104 98 98 102 103 102 99 97 98 99 97 95 95 94 93 93 94 95 97 98 97 96 92 88 85 83 83 83 84 85 87 88 85 82 79 78 79 77
50 128 132 164 205 192 235 250 306 269 274 9 67 129 189 209 161 124 94 103 110 126 137 147 155 57 293 189 127 251 88 100 135 114 134 152 149 151 153 149 151 145 140 136 139 140 140 149 145 141 142 140 139 138 130 120 114 114 115 111 109 109 104 103 106 105 108 107 98 96 96 96 94 92 94 96 97 98 98 98 99 95 89 84 83 83 83 86 88 89 91 89 84 80 77 77 76
92 101 108 195 255 78 315 274 151 268 329 38 3 121 204 209 142 126 115 120 120 122 141 170 164 73 298 42 46 266 102 104 143 155 149 147 137 145 149 146 147 144 142 136 136 134 138 144 139 142 142 140 142 138 128 120 117 116 114 114 115 112 105 104 110 108 107 105 97 96 98 100 99 97 98 98 97 97 100 102 102 99 94 87 83 84 83 86 90 89 91 90 86 80 78 79 77
97 86 75 70 85 29 232 219 195 235 53 351 331 64 188 181 148 137 135 134 130 352 151 201 179 137 169 87 330 326 75 78 146 162 154 145 138 144 145 143 146 146 142 138 137 133 141 144 140 145 143 142 143 134 128 125 122 117 115 119 119 111 107 109 113 110 106 105 102 103 105 106 103 104 106 105 104 104 106 106 104 102 98 93 88 87 86 87 89 90 93 92 88 84 81 81 78
184 107 65 75 113 306 246 236 242 189 85 311 328 33 110 159 151 146 150 159 169 195 198 224 196 165 139 106 193 116 53 357 130 157 154 144 140 143 142 143 145 144 143 140 137 137 148 145 143 147 145 146 141 133 131 132 126 120 119 123 123 114 110 112 114 109 109 112 110 110 110 108 105 107 109 106 106 106 105 104 107 107 102 98 91 87 86 87 88 89 92 91 90 87 86 84 79
258 259 353 276 148 300 263 246 256 337 79 278 298 349 36 152 160 161 164 169 171 164 171 181 211 223 120 132 194 118 253 294 223 156 149 144 143 145 142 143 145 146 144 141 140 142 150 147 147 151 149 148 142 137 137 137 130 124 122 125 125 118 116 116 116 114 112 111 111 110 108 108 108 110 108 104 103 101 99 98 102 104 101 100 93 89 88 87 87 89 89 88 89 88 88 85 78
30 13 228 245 244 226 242 256 226 306 236 227 251 249 332 177 174 173 173 168 130 159 161 153 205 256 136 159 122 93 218 233 179 158 152 149 148 148 142 146 147 149 147 144 144 142 150 149 150 153 151 149 144 142 142 139 131 125 120 122 123 120 121 121 122 125 123 116 113 110 107 112 109 105 103 103 104 100 98 94 95 98 99 99 95 90 88 88 88 90 89 85 84 84 84 83 76
14 10 230 207 242 243 225 237 195 227 216 235 261 236 216 179 180 183 178 164 138 157 139 133 207 224 143 159 100 95 172 177 172 163 158 153 151 151 144 147 148 150 149 147 147 144 152 152 152 154 153 150 145 144 143 138 129 123 117 119 125 124 125 127 131 132 129 123 123 119 111 117 114 107 102 101 99 97 100 97 97 102 104 101 96 93 90 87 87 90 91 87 84 82 81 79 74
255 68 315 231 224 251 248 235 199 209 260 267 257 218 189 174 173 180 182 151 142 158 144 178 192 153 152 162 117 91 155 186 179 166 162 158 155 152 146 146 150 152 151 151 151 149 151 153 155 155 154 151 147 145 143 139 133 130 124 126 137 136 131 131 138 135 130 126 127 124 113 114 116 115 107 100 98 99 102 97 95 101 107 106 104 104 98 91 90 93 91 90 86 82 79 75 71
250 138 217 236 240 266 308 288 251 301 286 248 197 162 172 171 170 183 191 174 163 169 168 197 177 145 163 156 141 118 161 191 178 168 164 161 156 153 149 146 151 152 154 154 152 152 151 151 155 158 158 154 150 148 146 143 138 138 137 140 149 149 144 138 140 145 142 134 127 120 112 107 104 111 111 105 105 106 103 96 96 97 102 106 105 105 103 98 95 95 91 86 81 77 74 71 65
260 179 220 225 285 290 327 284 288 299 262 197 116 132 163 175 183 194 184 178 174 177 173 169 150 173 191 121 138 146 176 186 172 168 166 162 160 156 149 147 152 153 156 156 154 156 155 150 153 162 162 158 156 154 150 146 141 140 144 151 156 155 155 148 144 147 146 131 125 120 113 107 96 101 110 112 113 114 110 105 105 103 106 110 109 107 105 104 97 94 89 76 68 64 62 62 55
280 202 246 207 81 235 218 269 268 268 237 88 82 133 169 186 201 196 179 196 184 163 123 133 156 197 196 157 171 169 178 178 170 170 168 165 161 158 152 149 152 155 159 159 156 158 159 154 155 162 161 160 162 158 154 152 149 143 146 159 165 160 162 163 157 150 146 129 121 121 116 113 105 101 107 108 106 107 110 111 110 107 108 108 105 101 99 96 90 85 80 70 62 58 57 55 46
315 166 269 168 157 199 201 279 347 268 37 86 89 144 178 204 332 198 203 223 166 94 104 136 194 228 184 192 176 164 171 171 170 170 169 165 158 156 151 150 153 159 163 161 161 162 164 161 158 161 160 162 163 161 162 162 160 155 155 161 162 161 163 171 170 159 157 144 126 125 120 118 112 106 109 102 93 92 97 104 106 102 99 97 96 94 93 87 83 82 78 73 66 62 59 55 48
11 184 231 202 200 211 192 198 179 264 18 84 80 156 188 167 292 216 264 298 114 119 168 155 182 303 263 167 43 145 163 167 170 168 168 163 156 153 151 155 158 163 168 168 168 169 171 169 165 164 163 164 164 164 165 167 168 162 163 162 156 157 161 171 176 172 168 161 148 140 129 126 117 109 113 101 88 89 93 99 101 102 101 99 99 95 95 90 86 85 80 75 68 64 60 56 52
260 226 211 215 205 196 185 177 191 298 23 65 141 200 203 172 174 253 352 284 143 145 187 124 151 272 356 73 27 153 159 164 170 167 166 163 158 158 159 162 165 168 174 177 176 174 176 178 173 170 168 167 165 164 165 169 169 161 163 166 162 159 163 171 178 182 180 176 171 162 147 137 129 119 123 110 94 93 95 100 101 103 104 102 100 96 96 93 90 87 79 74 65 58 54 49 43
233 213 206 217 187 137 23 11 356 329 358 19 263 221 229 199 168 174 180 205 156 154 179 142 160 207 229 32 75 162 159 166 172 170 168 167 165 167 169 170 173 175 177 182 185 180 178 183 181 177 173 169 169 168 169 171 165 158 163 167 172 171 170 173 180 188 189 189 187 171 152 148 148 138 140 130 106 104 103 102 104 105 106 104 102 100 98 95 92 88 77 68 60 52 46 39 31
43 139 213 203 71 64 29 10 13 341 332 344 321 240 250 249 165 173 212 200 174 201 194 180 200 194 182 119 155 164 163 170 177 175 173 175 173 173 176 173 176 179 181 185 187 187 184 185 186 186 182 176 174 172 169 169 165 163 163 165 173 176 175 174 180 186 188 195 193 176 163 168 172 163 158 145 123 119 114 107 111 113 115 112 109 106 101 99 90 78 66 54 46 41 38 33 29
63 254 216 114 41 61 65 16 21 5 317 321 318 227 240 253 155 175 222 214 192 221 211 187 210 199 173 145 159 168 169 175 182 183 180 184 183 182 182 176 178 181 184 186 186 191 189 188 188 189 192 184 179 179 177 173 170 171 168 167 166 169 177 179 183 185 188 196 194 182 177 179 182 180 171 156 143 137 126 120 122 124 128 124 120 113 97 90 66 54 45 36 31 31 33 33 36
104 296 156 93 13 167 69 14 15 9 299 313 314 275 246 224 178 209 214 224 221 231 222 209 218 193 165 154 166 172 174 178 186 189 187 189 190 192 192 181 178 179 181 186 189 194 191 193 192 190 194 190 186 187 187 184 179 179 176 169 165 171 179 180 180 185 187 191 191 186 181 178 177 180 173 166 164 154 142 133 133 135 141 143 131 110 79 61 43 41 34 32 31 32 38 40 36
113 67 75 90 35 29 36 355 22 3 288 287 289 286 303 120 199 221 216 234 244 252 234 226 226 180 160 161 169 174 178 183 188 191 191 193 195 197 198 189 179 174 179 188 193 194 193 195 195 194 195 192 191 190 189 193 188 183 182 175 168 173 176 174 171 174 180 180 182 180 176 174 169 172 171 170 170 161 154 147 150 150 148 149 127 100 79 72 68 63 40 32 31 32 36 35 19
149 129 113 119 55 0 3 346 1 24 293 283 297 319 322 246 242 223 222 241 263 38 350 273 233 164 156 158 166 176 183 187 191 194 193 194 197 200 201 197 190 180 180 188 191 192 193 193 195 198 198 194 195 192 189 195 192 184 185 180 172 175 175 172 167 163 168 167 169 169 167 168 162 162 165 166 168 160 156 153 156 154 134 120 111 108 98 88 82 67 39 27 26 24 17 15 359
175 162 165 149 117 317 341 330 307 210 263 291 327 304 268 251 265 193 229 243 227 48 0 354 168 149 151 158 169 181 186 190 195 197 197 197 198 201 203 202 199 191 187 188 187 189 192 192 192 196 199 198 198 197 194 195 193 187 186 183 180 182 176 173 173 165 160 158 161 162 160 161 158 155 153 153 157 147 141 141 135 125 123 121 117 117 101 77 60 41 27 16 9 2 353 353 349
220 180 140 150 233 301 325 299 290 73 251 280 280 262 259 255 290 293 248 244 211 107 54 117 152 149 158 169 175 184 189 193 197 198 200 201 200 201 205 206 202 199 198 195 189 190 194 192 190 192 195 198 199 200 199 196 194 191 189 189 189 186 179 178 181 173 166 166 166 164 159 162 163 156 149 146 146 141 138 137 126 119 122 126 127 114 80 48 12 356 0 351 345 343 335 334 337
231 169 9 301 307 307 319 302 316 32 276 179 249 264 259 241 310 266 252 249 177 133 120 137 154 162 173 176 179 186 190 194 197 198 200 202 200 200 205 208 206 203 202 199 195 193 196 197 194 192 193 194 197 198 199 199 197 196 194 193 194 190 185 182 184 182 181 182 180 173 165 165 167 162 157 151 147 147 146 140 131 127 123 121 126 26 344 353 332 316 325 323 323 326 322 323 326
79 50 334 297 302 302 306 299 306 356 263 199 248 278 287 131 251 250 251 36 116 162 153 158 171 177 183 181 183 188 192 195 197 198 199 201 201 202 205 208 209 207 203 201 200 195 196 201 200 198 197 195 195 198 202 202 200 200 197 197 197 194 192 187 186 189 190 188 184 178 169 164 165 163 164 164 160 162 160 155 146 144 166 299 347 337 330 332 316 305 315 316 316 316 314 314 317
90 60 310 279 282 286 269 274 289 325 267 195 236 276 266 144 229 243 70 69 186 183 168 176 192 190 185 184 183 189 195 197 198 199 200 201 202 204 205 206 208 209 207 204 201 197 195 198 202 203 204 202 200 203 206 205 204 203 201 200 199 197 198 195 195 198 197 194 187 182 177 172 172 170 170 174 175 177 178 180 170 165 228 263 313 321 319 319 310 309 315 319 319 314 311 311 311
96 108 286 283 291 282 271 273 289 280 276 160 212 272 241 194 221 233 81 108 169 176 184 187 203 200 188 187 184 191 196 196 199 203 204 204 204 205 206 206 206 207 209 208 203 200 198 198 201 204 207 209 206 207 210 210 208 206 205 204 202 201 204 204 204 205 203 201 198 193 191 187 181 178 180 182 184 188 187 186 194 214 237 255 293 301 299 302 302 306 310 315 319 316 314 311 312
116 109 278 290 285 272 271 47 112 202 185 122 218 269 247 205 216 202 108 153 161 176 201 194 205 204 194 193 192 196 195 197 200 203 205 206 206 207 209 208 206 207 209 209 206 203 202 200 201 203 208 212 211 210 213 214 212 211 209 208 206 206 209 212 212 211 208 206 204 201 198 193 185 184 187 188 189 195 199 209 231 244 252 270 288 288 283 287 292 297 302 310 317 317 316 313 318
140 117 214 247 251 243 75 70 244 238 147 131 215 259 260 233 212 169 136 174 183 204 208 192 199 202 203 202 201 203 200 202 203 205 207 207 207 208 210 210 207 208 207 208 209 207 204 203 204 207 210 214 214 214 216 218 217 215 214 213 210 210 212 216 216 215 212 209 206 203 198 193 191 192 193 197 208 218 229 242 251 250 255 281 292 283 269 272 286 290 298 311 316 319 321 321 326
130 177 211 210 222 244 344 327 259 288 142 150 199 250 271 269 254 122 145 181 196 223 214 192 198 199 206 207 207 213 206 205 206 209 210 209 209 209 210 210 207 208 208 207 209 209 209 208 207 209 213 216 217 218 219 220 221 219 218 217 214 213 214 216 217 216 214 211 207 203 200 197 197 204 207 217 230 237 242 245 249 248 263 289 289 281 263 261 281 286 296 310 318 323 324 324 324
136 217 211 188 205 222 317 313 83 341 326 183 215 250 296 274 251 83 186 190 190 226 225 202 203 204 210 213 212 216 207 204 209 212 212 210 211 211 210 210 209 208 208 208 208 209 211 212 212 211 214 218 219 220 220 221 222 221 221 220 217 216 216 215 216 216 215 213 209 207 208 208 212 219 223 230 237 242 241 241 246 241 258 282 268 257 255 257 273 286 301 303 311 317 318 322 325
140 231 225 206 207 196 215 177 68 15 280 223 235 250 268 268 258 168 168 190 193 219 231 219 212 210 212 220 219 219 214 209 213 212 210 209 210 211 212 212 211 210 210 209 209 209 211 214 216 215 214 218 220 219 221 222 222 222 222 222 221 220 219 218 218 218 216 214 212 213 215 219 225 229 229 232 238 243 241 239 241 233 242 265 255 246 250 256 263 277 294 293 297 305 313 319 318
165 196 217 207 202 217 231 212 9 351 293 261 256 254 263 269 267 251 168 179 209 221 231 227 221 216 207 218 222 219 219 220 222 215 209 208 207 208 211 213 212 211 211 212 211 210 211 213 216 218 216 215 218 218 219 220 220 222 221 220 221 221 221 221 221 221 221 220 219 218 220 222 225 232 236 237 240 241 239 238 237 233 239 253 250 247 261 270 271 276 284 282 287 292 303 308 303
183 199 217 214 201 203 221 236 299 339 307 270 260 261 263 264 266 261 187 164 224 233 238 233 223 222 212 217 222 218 221 225 226 216 207 205 206 209 210 213 213 211 212 212 213 213 213 214 215 219 219 214 215 216 217 217 217 218 219 218 221 224 226 228 228 225 225 228 226 223 226 226 226 236 240 240 248 243 236 239 238 237 241 246 245 248 267 277 275 273 269 271 280 288 297 299 294
188 194 217 222 221 206 181 230 237 329 295 271 258 267 266 262 267 267 207 154 232 236 235 236 222 220 217 217 222 221 223 227 223 208 204 206 209 213 213 213 213 212 213 213 214 215 215 215 215 219 220 216 214 214 215 217 215 214 216 219 223 225 227 231 233 230 227 230 231 228 228 229 231 235 232 234 248 244 233 236 236 237 240 241 244 252 266 271 267 259 259 273 281 281 286 286 292
179 185 207 210 225 227 201 219 202 159 257 265 269 278 273 266 268 270 234 185 235 234 230 235 226 221 218 218 223 224 225 228 222 210 207 209 211 214 215 216 215 214 215 215 215 216 216 216 217 218 219 219 218 216 216 219 218 218 220 223 227 229 229 230 233 230 227 228 231 232 231 230 233 234 230 233 245 246 239 236 233 236 242 244 249 259 270 271 269 264 263 274 271 261 260 266 304
181 182 203 221 207 221 230 209 173 168 225 265 285 286 279 275 272 273 262 235 243 237 229 235 229 223 222 220 222 219 221 230 229 217 207 207 208 211 214 217 218 218 218 219 219 218 216 216 217 216 217 221 222 219 218 221 224 225 226 227 229 231 233 234 233 231 232 231 229 230 232 232 233 235 232 232 240 247 248 243 239 238 243 250 256 264 270 267 265 267 268 263 247 228 228 261 314
187 176 196 226 176 190 234 191 170 209 228 277 291 287 282 277 270 269 262 243 242 237 230 236 231 230 231 224 220 215 218 229 231 220 206 203 204 206 210 214 215 217 219 219 219 218 216 217 217 213 212 216 219 222 224 225 226 228 229 229 228 229 231 232 232 232 234 233 228 227 230 231 233 237 235 234 238 245 248 247 244 242 244 250 255 257 255 254 256 256 249 227 211 211 241 267 298
207 201 207 211 176 205 238 166 269 264 226 231 273 280 273 261 254 257 254 229 232 230 226 236 231 231 239 235 230 223 221 225 226 222 206 197 202 206 209 212 211 214 217 216 217 219 220 222 222 219 215 214 214 220 225 224 221 223 224 221 220 223 224 225 226 227 226 226 225 224 225 228 233 237 236 237 240 243 246 248 244 242 245 247 246 246 244 250 249 227 205 191 199 241 261 264 280
203 226 226 218 197 209 219 119 319 266 233 168 215 267 262 247 243 244 238 225 231 218 212 230 228 221 224 230 234 227 223 227 229 230 211 198 205 207 208 210 209 213 217 216 219 224 226 225 225 224 222 221 221 220 218 218 216 215 214 212 212 215 219 224 224 223 223 225 228 226 225 228 233 236 235 235 235 237 242 244 240 237 244 248 248 248 248 247 231 210 203 201 214 255 264 252 247
204 198 206 218 209 207 199 172 206 249 260 58 189 258 270 289 262 238 230 239 240 218 210 226 227 216 211 219 229 224 221 224 226 231 220 209 207 205 208 210 210 216 220 219 221 225 227 226 225 226 226 226 227 224 215 212 214 213 214 216 217 216 219 224 225 226 227 229 234 232 225 226 230 235 236 233 232 235 240 239 237 237 244 253 254 246 237 222 209 211 218 216 226 253 251 237 226
201 168 181 202 204 208 204 184 216 256 310 292 226 241 279 283 270 230 224 251 252 237 223 224 226 222 216 219 225 223 222 219 217 222 219 215 211 207 210 211 215 221 222 221 223 225 225 225 226 227 227 226 227 226 219 214 214 213 213 217 220 220 221 223 224 226 225 228 235 233 224 222 227 232 231 231 235 240 241 239 240 240 240 245 241 226 210 199 203 217 221 216 243 259 232 213 205
169 151 177 196 193 200 198 181 222 298 319 264 205 148 258 268 254 149 196 243 250 244 231 223 227 226 221 223 226 224 226 222 217 221 219 216 213 212 213 215 222 225 223 224 226 226 226 225 226 227 227 227 227 227 223 218 215 214 213 215 218 221 223 223 222 223 222 223 227 224 221 222 227 231 228 228 233 236 237 236 233 228 224 222 211 200 198 203 215 223 227 236 243 233 207 193 186
108 127 138 144 152 146 141 181 182 116 261 254 192 161 233 271 256 202 200 236 244 248 241 224 224 225 219 223 227 224 226 224 221 224 225 221 217 219 220 221 226 227 225 227 227 227 226 225 225 225 226 226 226 227 224 219 215 215 214 213 215 217 218 220 219 219 217 216 215 216 221 223 225 229 226 224 227 227 226 223 214 207 209 210 206 210 219 228 236 243 249 251 238 209 186 178 174
121 126 115 109 116 92 120 199 106 214 248 249 168 166 208 273 263 217 215 219 220 237 247 237 231 230 223 222 226 225 223 221 218 222 229 228 225 229 229 228 230 229 229 228 227 226 226 225 225 224 224 224 224 224 223 220 217 216 214 213 213 214 214 215 215 214 214 214 213 214 219 221 221 224 221 220 226 223 214 210 206 204 207 212 218 229 234 237 242 248 251 242 222 201 173 165 165
131 138 133 120 114 129 164 156 184 231 244 236 172 175 201 243 255 219 216 194 200 229 237 236 232 226 221 219 224 225 223 221 216 220 227 224 223 225 226 227 228 228 227 226 225 224 224 224 224 222 221 220 219 218 217 217 217 217 215 214 214 213 212 213 214 214 215 216 215 214 215 216 218 219 215 219 226 218 208 207 206 207 211 220 233 241 240 237 238 236 229 212 196 183 166 161 163
154 150 146 130 122 159 199 191 206 237 232 175 213 179 211 242 252 244 235 209 220 238 240 239 231 224 221 213 219 221 210 216 217 221 223 212 215 216 216 221 222 222 225 224 224 222 221 223 221 219 219 216 215 214 213 213 215 216 215 213 214 214 213 214 215 216 217 217 216 214 213 212 216 215 209 214 221 214 207 206 206 209 217 232 247 247 236 227 223 216 204 190 179 171 165 163 164
172 160 156 154 145 165 213 203 217 254 221 184 128 125 247 264 260 246 249 242 230 229 243 258 257 254 254 238 249 265 233 224 218 221 227 217 220 218 215 220 221 223 226 224 223 222 220 220 218 217 219 216 214 214 213 214 215 215 215 214 214 214 214 214 215 216 216 216 215 214 214 214 216 214 207 210 217 212 205 205 208 212 222 238 246 235 219 210 206 198 187 177 171 168 166 166 167
179 173 159 171 165 180 212 199 211 230 142 166 159 164 247 261 43 264 264 264 251 239 252 269 279 276 278 296 290 275 260 244 224 222 230 225 222 222 222 225 225 227 227 224 223 221 218 218 217 215 217 215 214 214 214 215 216 215 215 214 215 215 215 215 215 215 215 215 215 215 216 216 216 213 211 213 215 209 205 206 210 216 230 243 237 218 206 201 194 184 175 171 170 168 168 169 170
197 152 138 211 186 166 187 185 211 175 73 189 189 231 258 284 320 292 268 254 246 251 259 257 261 257 257 267 261 250 252 251 243 242 243 233 223 222 223 224 226 227 227 224 222 219 217 217 215 215 218 215 212 214 214 214 215 215 215 215 216 216 215 214 214 215 215 215 217 217 217 218 216 214 213 213 212 208 206 207 209 221 238 239 224 210 204 196 185 176 171 171 171 170 170 171 172
161 176 191 189 59 72 153 146 75 91 256 225 191 247 279 307 292 270 245 242 225 219 240 240 247 247 249 263 259 246 247 250 253 255 257 245 228 224 222 219 222 223 223 224 221 218 216 214 213 214 217 215 214 215 215 214 214 215 216 216 215 215 215 215 215 216 215 215 218 220 219 217 215 213 211 211 210 208 206 206 209 225 240 229 211 204 200 192 181 176 174 173 172 171 172 173 170
140 188 178 127 31 339 237 232 154 188 245 247 203 242 266 271 272 253 224 239 237 228 232 229 244 248 241 247 249 246 239 230 239 244 250 249 235 231 224 217 220 221 222 223 220 218 215 213 212 211 212 213 213 215 215 214 215 216 217 216 215 215 215 217 219 218 215 214 217 218 217 215 213 211 209 207 207 206 204 204 213 232 235 217 204 199 196 190 181 177 176 175 174 173 173 171 167
147 176 155 143 230 207 186 219 217 207 238 259 225 238 255 232 232 238 205 227 242 246 243 243 256 246 233 249 259 259 242 228 230 233 240 247 244 244 232 220 222 221 220 220 218 216 212 210 211 209 210 212 212 217 218 217 217 218 219 220 219 218 218 218 219 217 215 215 216 215 213 214 214 211 207 205 205 205 202 204 218 234 222 204 200 198 193 187 181 178 178 176 175 174 173 169 166
5 156 162 170 271 202 187 194 207 218 233 255 247 231 248 221 212 226 226 226 239 245 244 243 250 249 241 266 276 274 259 251 253 251 252 256 248 242 230 223 223 217 214 211 208 207 205 205 206 207 210 212 215 220 221 219 219 220 221 222 221 221 221 220 219 216 216 216 217 216 214 215 215 211 207 205 204 202 202 207 221 225 209 201 200 196 189 184 181 180 180 178 176 174 174 171 167
167 174 177 184 183 179 246 205 203 231 228 244 255 253 250 199 177 216 223 228 233 238 245 239 247 304 279 252 257 265 263 255 257 259 260 262 250 236 221 217 217 209 203 198 194 196 197 199 202 204 207 210 214 219 220 219 220 220 221 222 222 222 222 221 218 214 215 217 216 216 216 215 213 210 206 202 201 202 203 211 222 217 206 203 198 191 186 183 181 182 181 179 176 174 175 173 169
182 180 183 189 183 167 196 207 192 205 234 229 254 271 257 170 158 214 217 225 228 224 250 253 248 264 253 245 238 247 262 262 264 265 259 258 250 234 213 205 204 200 197 191 187 189 191 195 198 200 203 206 211 214 217 218 218 219 220 220 221 221 220 219 216 213 215 216 215 215 215 214 212 210 204 199 200 202 204 213 220 212 204 201 195 188 185 183 182 183 181 179 177 176 177 175 171
Height
828 828 827 827 827 827 828 828 839 841 840 850 852 852 852 849 850 849 849 850 849 849 848 849 848 849 851 851 850 849 851 851 852 858 861 857 856 857 858 859 861 863 865 867 868 869 869 870 871 871 871 872 872 872 872 872 873 873 873 873 874 874 874 874 875 875 875 874 874 874 874 874 874 874 874 874 874 874 874 874 874 874 874 873 873 873 873 873 872 872 872 872 872 872 872 871 871
828 828 827 828 826 828 831 830 843 847 844 854 853 850 850 850 851 847 846 847 847 849 849 849 849 851 852 850 848 849 851 851 852 854 857 858 857 859 859 859 861 863 865 867 868 870 870 870 871 871 872 872 873 873 873 873 873 874 874 874 875 875 875 876 876 876 875 875 875 875 875 874 875 874 874 875 875 875 875 875 875 875 875 874 874 874 874 874 874 873 873 873 873 873 873 873 872
828 828 827 828 827 828 831 833 844 851 851 855 851 848 850 849 847 843 844 846 848 849 849 851 852 852 852 851 850 852 853 852 853 853 856 859 858 859 860 860 861 863 864 866 868 869 870 870 871 871 872 872 873 873 873 874 874 875 875 875 876 876 876 876 877 877 876 876 876 875 875 875 875 875 875 875 876 876 876 876 876 876 876 875 875 875 875 875 875 875 874 874 874 874 874 874 873
828 828 828 827 829 830 834 839 844 849 853 855 850 847 848 846 843 844 846 848 849 850 850 851 852 852 852 853 851 852 853 853 853 853 856 858 858 859 860 861 862 863 864 866 868 869 870 870 871 872 872 873 873 873 874 874 875 875 876 876 877 877 877 877 877 878 877 877 877 876 876 876 876 876 876 876 876 876 876 877 877 877 877 876 876 876 876 875 876 875 875 875 875 875 875 875 874
828 828 827 826 831 835 838 845 846 847 850 850 848 846 845 843 843 846 849 850 851 851 851 851 852 853 852 852 852 852 852 852 854 854 855 858 859 860 861 862 863 864 865 866 867 869 870 870 871 872 872 873 873 874 874 875 875 876 876 877 877 878 878 878 878 878 878 878 878 878 877 877 877 877 877 877 877 877 877 877 877 877 877 877 877 877 877 876 877 876 876 876 876 876 876 876 875
828 827 827 827 833 836 841 848 847 846 845 844 844 843 842 842 843 847 850 852 852 852 852 851 851 852 853 853 853 852 851 853 854 854 856 858 860 861 861 863 864 865 866 867 868 869 870 870 872 872 873 873 874 874 875 875 876 876 877 878 878 878 878 879 879 879 879 879 879 878 878 878 878 878 878 878 878 878 877 877 878 878 878 878 878 878 877 877 878 878 878 878 877 877 877 877 877
828 828 828 831 835 837 843 847 845 844 844 844 843 842 842 842 843 846 851 853 853 853 853 852 850 850 853 854 853 852 853 854 854 855 857 858 860 861 862 864 865 866 867 868 869 870 870 871 872 873 873 874 874 875 875 876 876 877 877 878 879 879 879 880 880 880 880 879 879 879 879 879 879 879 879 879 878 878 878 878 878 878 879 879 879 879 878 879 879 879 879 879 879 878 878 878 878
828 830 832 836 841 843 845 847 845 844 846 847 844 843 843 843 844 846 849 851 852 852 852 853 851 851 854 853 853 853 854 856 855 857 858 858 860 861 862 864 866 867 867 868 869 870 870 871 872 873 874 874 875 875 876 876 876 877 878 878 879 879 880 880 880 880 880 880 880 880 880 880 880 880 879 879 879 879 879 879 879 879 880 880 880 880 880 880 880 880 880 880 880 879 879 879 879
828 831 835 838 844 847 848 849 847 845 846 847 845 845 846 845 844 845 848 850 851 851 852 852 852 853 853 854 854 853 855 856 857 858 859 859 860 861 863 865 866 867 868 869 870 870 871 872 873 873 874 874 875 876 876 876 877 877 878 879 879 880 880 881 881 881 881 881 881 881 881 881 881 881 881 880 880 880 880 880 880 880 881 881 881 881 881 881 881 881 881 881 881 880 880 880 880
830 832 836 840 845 850 852 849 846 846 845 845 844 844 846 846 845 845 846 849 850 850 852 852 853 854 853 855 855 853 855 856 857 859 859 860 861 862 863 865 866 867 868 869 870 871 871 872 873 874 874 875 876 876 876 877 877 878 878 879 880 880 881 881 881 882 882 882 882 882 882 882 882 882 882 881 881 881 881 881 881 881 881 882 882 882 882 882 882 882 882 882 881 881 881 881 881
834 835 837 843 849 851 851 847 845 844 843 844 843 843 845 845 846 847 846 849 850 850 853 853 852 853 854 856 855 854 856 857 858 859 860 861 861 863 863 865 866 867 868 869 870 871 872 873 873 874 875 875 876 876 877 877 877 878 879 880 880 881 881 882 882 882 882 883 883 883 883 882 883 882 882 882 882 882 882 882 882 882 882 882 883 883 883 883 883 883 882 882 882 882 882 882 881
838 839 838 846 849 848 850 848 846 844 842 843 842 842 844 844 845 847 847 848 849 851 851 851 850 850 855 858 854 855 857 857 858 859 861 861 862 863 864 865 866 867 868 869 870 872 873 873 874 875 875 876 876 877 877 878 878 878 879 880 880 881 881 882 882 883 883 883 883 883 883 883 883 883 883 883 883 883 883 883 883 883 883 883 883 883 883 883 883 883 883 882 882 882 882 882 882
838 840 839 847 850 848 852 852 848 847 842 839 841 843 844 844 844 843 845 846 847 850 849 848 849 849 855 856 853 856 857 857 859 860 861 862 863 863 865 865 866 868 868 869 871 872 873 874 874 875 875 876 877 877 878 878 879 879 880 880 881 882 882 882 883 883 883 883 884 884 884 884 884 883 883 883 883 883 883 883 884 884 884 884 884 884 884 884 883 883 883 883 883 883 883 882 882
837 839 839 848 855 852 853 851 848 848 842 839 842 845 845 844 843 841 843 846 846 848 848 848 848 849 853 855 853 854 856 857 859 861 862 862 863 864 865 866 867 868 869 870 871 872 873 874 874 875 876 877 877 877 878 878 879 879 880 880 881 882 882 883 883 883 884 884 884 884 884 884 884 884 884 884 884 884 884 884 884 884 884 884 884 884 884 884 884 884 883 883 883 883 883 883 883
837 839 839 846 854 852 852 852 850 849 841 840 845 846 846 845 845 843 843 844 845 846 848 849 848 850 851 851 851 851 854 857 859 861 862 862 863 864 865 866 867 868 869 870 871 872 873 874 874 875 876 877 877 878 878 879 879 879 880 880 881 882 882 883 883 884 884 884 885 885 885 885 885 885 885 885 885 885 885 885 885 885 885 885 884 884 884 884 884 884 884 884 884 884 883 883 883
837 838 841 846 852 853 852 852 853 851 842 842 849 848 846 846 846 845 843 843 845 847 847 848 849 850 849 849 850 850 853 857 859 861 862 862 863 865 866 867 868 869 870 871 871 872 873 874 874 875 876 877 877 878 878 879 879 879 880 881 881 882 882 883 883 884 884 885 885 885 885 886 886 886 886 886 885 885 885 885 885 885 885 885 885 885 885 885 885 885 885 885 884 884 884 884 883
838 839 843 848 850 851 850 849 851 849 843 844 850 849 845 846 846 846 845 844 845 847 847 847 849 850 848 849 851 851 854 857 858 860 862 863 863 865 866 867 868 869 870 871 871 872 873 874 875 875 876 877 877 878 878 879 879 879 880 880 881 882 882 883 884 884 885 885 885 885 886 886 886 886 886 886 886 886 886 886 886 886 886 886 886 886 886 886 885 885 885 885 885 885 884 884 884
839 841 846 849 846 849 850 849 849 848 846 846 849 848 845 845 846 846 845 845 845 848 848 848 849 849 849 850 851 852 854 857 858 860 861 862 863 864 865 866 867 868 869 870 871 872 873 874 875 875 876 876 877 877 878 878 879 880 880 880 881 882 882 883 883 884 884 885 885 885 886 886 886 886 886 886 886 886 886 886 886 886 886 886 886 886 886 886 886 886 886 885 885 885 885 885 884
843 845 845 848 848 850 852 850 850 850 850 849 848 849 848 845 844 845 845 845 846 847 847 848 848 848 849 850 851 852 854 856 857 859 860 861 862 863 863 864 865 867 868 869 871 871 872 873 874 875 875 876 876 877 877 878 879 880 880 880 881 881 882 883 883 884 884 884 885 885 886 886 886 886 886 886 886 887 887 887 887 887 887 887 887 887 887 886 886 886 886 886 885 885 885 885 885
847 847 845 849 852 851 851 851 851 851 852 849 847 849 850 845 844 845 844 844 846 844 842 845 846 845 847 849 850 852 853 855 857 858 859 861 861 862 862 863 864 865 867 869 870 871 871 872 873 875 875 875 876 876 877 878 878 879 879 879 880 881 881 882 882 883 883 884 884 885 885 885 885 886 886 886 887 887 887 887 887 887 887 887 887 887 887 887 886 886 886 886 885 885 885 885 885
847 847 846 851 852 850 851 851 851 852 852 850 848 850 849 845 845 845 843 844 843 838 834 837 839 839 844 848 849 851 852 853 855 857 858 860 861 862 862 862 863 864 866 868 869 870 871 872 872 874 874 875 875 876 876 877 878 878 878 879 880 880 881 881 882 882 882 883 884 884 885 885 885 886 886 886 887 887 887 887 887 887 887 887 887 887 887 887 887 886 886 886 886 885 885 885 884
848 851 850 851 851 850 849 850 851 852 852 850 850 849 846 845 845 843 843 842 837 833 831 831 832 834 840 844 848 850 851 852 853 855 857 859 860 861 862 862 863 864 865 867 868 869 870 871 872 873 873 874 875 876 876 876 877 878 878 878 879 879 880 880 881 881 882 882 883 884 884 885 885 886 886 886 886 887 887 887 887 887 887 887 887 887 887 887 886 886 886 886 886 885 885 884 884
849 854 853 852 852 850 848 848 851 852 851 849 849 848 846 846 844 841 842 838 832 832 832 832 831 833 837 842 846 848 849 850 851 852 854 856 858 859 861 861 862 863 864 865 867 868 869 870 871 872 872 873 874 875 876 876 876 877 877 877 878 879 879 880 881 881 881 882 883 883 884 885 885 885 886 886 886 886 887 887 887 887 887 887 887 887 887 887 887 886 886 886 886 885 885 884 884
848 852 853 852 852 850 848 849 849 851 851 848 849 849 847 844 843 843 841 834 832 834 834 834 834 834 837 840 844 845 847 848 848 850 852 854 856 858 860 860 861 862 863 864 865 866 867 868 870 871 871 872 873 874 875 875 875 876 876 877 877 878 879 880 880 881 881 882 882 883 884 885 885 885 885 886 886 886 887 887 887 887 887 887 887 887 887 887 887 886 886 886 886 885 885 884 884
848 849 851 851 851 848 847 848 847 849 849 849 851 848 845 843 844 844 838 831 831 834 835 836 835 836 838 839 842 844 845 847 848 850 852 854 855 858 859 859 860 861 861 862 864 865 866 867 868 870 870 871 872 873 874 874 875 875 875 876 877 878 878 879 880 880 881 881 882 883 883 884 885 885 885 885 886 886 887 887 887 887 887 887 887 887 887 887 887 887 886 886 886 885 885 884 883
848 848 849 850 850 847 846 846 845 847 848 849 850 845 843 844 846 840 831 830 831 833 835 836 836 837 837 838 840 842 843 845 847 849 850 853 855 856 858 859 859 859 860 861 862 863 864 865 866 868 869 870 872 872 873 873 874 874 875 875 876 877 877 878 879 879 880 881 882 882 883 884 884 885 885 885 886 886 886 887 887 887 887 887 887 887 887 887 887 887 886 886 886 885 884 884 883
850 850 850 849 849 847 847 846 844 846 846 848 847 843 843 845 847 837 828 832 834 833 836 836 836 836 836 838 839 841 842 843 845 847 849 851 853 854 856 857 858 858 859 860 861 862 863 864 865 866 867 868 870 871 871 872 873 873 874 875 876 876 877 877 878 879 879 880 881 881 882 883 883 884 885 885 885 886 886 886 887 887 887 887 886 886 886 886 886 886 886 885 885 884 884 883 882
852 852 852 850 849 848 846 845 845 845 844 846 846 844 844 847 846 834 828 835 835 833 836 837 836 835 836 837 838 840 841 843 845 846 847 849 850 852 853 855 856 858 858 859 860 861 862 863 864 865 866 867 868 869 870 871 871 873 873 874 875 876 876 876 877 878 879 879 880 881 881 882 883 883 884 884 885 885 886 886 886 886 886 886 886 886 885 885 885 885 885 884 884 883 883 882 881
851 852 855 854 849 847 844 843 846 846 845 845 847 846 842 843 839 829 830 835 834 834 836 837 836 835 836 836 837 838 839 841 843 844 845 847 848 850 851 853 854 856 857 858 859 860 860 861 863 864 865 866 867 868 869 870 871 872 872 873 874 875 875 876 877 877 878 879 879 880 880 881 882 882 883 883 884 884 885 885 885 885 885 885 885 885 885 884 884 884 883 883 882 882 881 881 880
851 853 857 858 856 850 844 845 848 846 845 845 849 849 835 830 830 827 832 835 833 835 834 836 836 835 836 836 837 837 838 839 840 842 843 845 847 848 850 851 853 854 856 857 858 858 859 860 861 862 863 864 866 867 868 869 870 870 871 872 873 874 875 875 876 877 877 878 878 879 879 880 881 881 882 882 883 883 884 884 884 884 884 884 884 884 884 883 883 883 882 882 881 881 881 880 880
853 857 857 859 862 854 845 846 847 843 845 845 849 850 834 824 825 826 831 833 832 832 831 833 835 836 836 835 836 835 835 837 838 840 842 843 845 847 848 849 851 852 853 855 856 857 858 858 859 860 861 863 864 865 866 867 868 869 870 871 872 873 874 875 875 876 877 877 878 878 878 879 880 880 881 881 882 882 883 883 883 884 883 883 883 883 882 882 882 882 882 881 881 880 880 880 879
855 860 860 861 862 858 850 847 847 845 845 845 847 848 835 824 823 827 832 833 832 829 827 830 833 835 835 834 835 834 834 836 837 839 840 842 843 844 846 847 848 850 851 853 854 856 857 857 858 858 859 860 862 863 865 866 867 868 869 870 871 871 872 873 874 875 876 876 877 877 878 878 879 879 880 880 881 881 882 882 882 882 882 882 882 882 881 882 881 881 881 880 880 880 879 879 879
858 859 860 860 860 862 859 849 848 848 846 845 844 843 837 827 824 830 834 832 832 829 826 828 831 834 834 833 833 833 833 834 835 837 837 839 840 842 843 844 846 847 849 850 852 854 855 856 856 857 857 858 860 861 863 864 866 867 868 869 869 870 871 872 873 873 874 875 876 876 877 877 878 878 879 879 879 880 880 881 881 881 881 881 881 881 881 881 881 880 880 880 879 879 879 879 878
864 862 858 858 858 862 862 851 848 848 846 845 843 842 839 829 824 828 832 832 831 829 826 826 829 832 833 833 832 831 832 832 832 832 834 835 837 839 841 842 844 845 846 848 849 851 852 854 855 855 856 856 858 859 861 862 864 865 866 867 868 869 870 870 871 871 872 873 874 875 876 876 877 877 878 878 878 879 879 879 880 880 880 880 880 880 880 880 880 880 880 879 879 878 878 878 877
862 862 857 859 861 864 864 857 851 848 846 845 843 841 837 830 824 823 827 831 829 826 824 824 825 828 830 831 831 830 830 828 827 828 830 833 834 836 838 840 842 843 844 845 847 848 849 851 853 853 854 855 856 857 859 860 862 863 864 865 866 867 868 868 869 870 870 871 872 873 874 875 875 876 877 877 877 877 878 878 878 878 879 879 879 879 879 878 879 879 879 878 878 878 877 877 876
849 852 851 855 859 862 864 859 853 852 850 845 841 838 833 830 825 819 823 830 828 825 824 824 824 825 827 828 828 827 827 825 824 826 828 830 832 834 836 838 839 840 841 843 844 846 847 848 850 851 852 853 854 855 857 858 859 861 862 863 863 864 865 866 867 868 869 869 870 871 872 873 874 875 875 876 876 876 877 877 877 877 877 878 878 878 877 877 877 878 878 878 877 877 876 876 876
842 848 851 853 854 856 858 857 854 855 853 843 837 836 832 828 823 817 821 828 828 826 824 823 822 822 823 824 824 823 823 822 822 825 827 828 830 832 834 835 836 837 839 840 841 842 843 845 846 848 849 851 852 853 854 855 856 857 859 860 861 862 863 864 865 866 867 867 868 869 870 871 872 873 874 874 875 875 876 876 876 876 876 876 876 876 876 876 876 876 876 876 876 876 876 875 875
843 848 851 854 854 852 851 852 852 855 856 844 836 836 831 826 822 816 818 824 823 820 819 819 818 818 819 819 819 819 819 820 820 822 824 826 827 829 831 832 833 834 835 836 837 839 841 842 843 845 846 848 848 850 851 851 853 854 855 857 858 860 861 862 863 863 864 865 866 867 867 869 870 870 872 873 873 874 874 874 874 875 875 875 875 874 874 874 874 874 875 875 875 875 875 874 874
845 848 851 852 852 851 848 848 850 854 853 845 839 840 831 823 820 815 814 817 815 812 812 812 813 815 816 815 815 816 817 817 817 818 820 822 824 825 827 828 829 830 831 832 834 836 838 839 840 841 843 844 845 846 848 848 849 851 852 854 855 857 858 859 860 861 861 862 863 864 865 866 867 868 869 870 871 871 872 872 872 873 873 873 873 873 873 873 873 873 873 874 874 874 874 874 874
847 847 850 850 850 852 848 847 850 849 848 846 844 842 832 821 818 812 808 809 809 808 809 808 810 811 810 811 812 813 814 814 813 813 815 818 820 822 823 824 825 827 828 829 830 831 833 834 835 837 838 840 842 843 844 846 847 849 850 852 853 854 855 857 858 858 858 859 860 861 862 864 865 866 866 867 868 869 869 870 870 871 871 871 871 872 871 872 872 872 872 872 873 874 874 874 873
851 847 845 846 849 850 845 846 848 843 845 847 846 844 830 817 816 810 802 805 806 806 808 809 809 809 808 809 809 809 809 808 808 808 810 813 815 816 818 819 821 822 823 824 825 826 827 828 830 832 834 836 838 839 840 843 845 847 848 849 851 851 852 853 854 854 855 856 857 858 859 861 863 863 864 865 866 866 867 867 868 869 869 869 869 870 870 871 871 871 871 871 872 873 873 874 873
853 849 843 841 845 847 846 849 848 846 847 843 845 847 827 808 809 807 800 802 804 804 807 806 804 805 807 808 806 805 805 804 804 804 806 808 809 812 813 815 817 817 817 818 820 821 822 824 825 827 829 831 833 835 837 840 841 843 844 845 846 847 848 849 849 850 851 852 854 855 857 859 860 861 862 863 863 864 865 865 866 866 867 867 867 868 868 869 870 870 870 870 871 872 872 873 873
851 846 842 841 841 845 848 850 850 850 848 841 844 849 833 815 809 804 800 801 799 800 804 802 799 800 801 803 801 800 801 800 801 801 802 804 805 807 809 809 811 811 811 814 815 816 817 819 821 823 825 826 828 830 833 835 837 839 840 841 842 843 844 845 846 848 849 850 852 853 855 856 857 858 859 860 861 861 862 863 863 864 865 865 866 866 867 867 868 869 869 870 870 871 871 872 873
844 837 839 843 843 847 848 849 851 849 847 843 843 849 847 831 813 803 802 803 799 796 798 797 796 796 795 796 796 795 795 795 796 797 798 799 800 801 802 802 804 804 806 809 810 811 812 815 817 818 820 822 823 826 829 830 832 834 836 837 839 840 841 842 843 845 847 848 849 850 852 853 854 855 857 857 858 859 860 861 861 862 863 863 864 865 865 866 867 867 868 869 869 870 870 871 872
839 835 837 841 843 847 847 851 854 852 854 849 841 847 852 832 810 805 805 802 798 791 790 792 791 791 791 791 791 790 790 790 791 792 792 794 795 795 796 796 798 800 802 804 805 807 809 811 813 815 816 818 819 822 824 826 827 829 831 833 835 836 838 840 841 842 844 845 846 848 849 850 851 853 854 855 856 857 858 858 859 860 861 862 863 863 864 865 866 866 867 867 868 869 869 870 870
836 837 839 842 846 849 852 854 854 858 859 850 840 843 848 829 804 804 808 802 796 788 784 785 784 785 786 786 786 786 786 787 787 788 788 789 790 791 792 794 795 796 798 801 802 804 806 807 810 811 812 814 815 817 819 821 824 825 826 828 830 832 834 836 838 839 840 842 843 844 846 847 849 850 852 852 854 855 856 857 857 858 859 860 861 862 863 864 864 865 865 866 867 867 867 868 868
835 840 842 847 852 852 855 853 852 860 857 848 842 838 845 836 803 793 798 793 788 786 783 781 780 781 781 781 782 781 782 783 783 784 784 785 787 788 791 792 792 793 795 797 799 801 803 804 806 807 808 810 812 814 815 817 820 821 822 823 825 827 830 832 834 835 837 839 840 841 843 845 846 848 849 850 851 853 854 855 855 856 857 858 859 860 861 862 862 863 863 864 864 865 865 865 866
834 838 840 848 856 857 857 856 858 862 854 850 848 839 844 838 804 786 785 780 780 782 779 777 776 776 776 776 777 777 778 779 780 781 781 782 784 786 787 788 788 791 792 793 794 796 798 800 802 804 805 807 808 811 812 814 816 817 818 820 821 823 826 827 829 830 833 835 837 838 840 842 843 845 846 848 849 851 852 853 854 855 855 856 857 858 859 860 860 860 861 862 862 863 863 864 865
834 834 836 848 860 864 863 861 862 858 850 850 848 845 840 819 793 784 780 778 780 778 774 772 771 770 769 770 772 773 775 777 778 778 778 779 781 781 782 784 785 787 787 788 790 792 794 795 798 800 801 803 806 807 808 810 812 813 814 816 818 820 822 823 824 826 828 831 833 835 836 838 840 842 843 845 847 849 850 851 852 852 853 854 855 856 856 857 858 858 859 860 861 862 862 863 864
834 830 832 843 857 868 866 860 860 855 848 846 845 847 835 804 786 781 776 775 775 773 774 772 771 771 768 769 772 774 776 776 776 776 776 776 777 777 779 780 782 783 784 785 787 788 790 792 794 796 797 800 802 804 805 807 808 809 811 813 815 816 818 819 820 822 824 827 829 831 833 834 836 839 840 842 844 847 848 849 850 850 851 852 853 853 854 855 856 856 857 858 859 860 861 862 863
832 825 826 834 839 847 849 846 848 847 845 848 850 843 819 794 786 780 775 776 773 772 775 775 776 775 773 773 775 776 776 775 775 775 774 774 774 775 777 778 779 779 781 782 783 785 787 788 790 793 794 796 798 800 802 803 805 807 809 810 812 813 815 816 817 819 821 823 826 827 830 831 833 835 838 839 841 843 845 846 847 848 849 850 851 852 853 854 854 854 855 857 858 860 861 862 863
834 827 830 834 826 826 835 840 839 839 841 845 844 828 799 783 780 773 773 776 774 774 773 774 775 773 773 775 773 773 773 772 773 773 773 772 773 773 773 774 775 776 777 778 779 781 782 784 787 789 791 793 795 797 798 800 802 805 806 807 809 810 812 813 814 816 818 820 822 824 827 829 830 832 835 837 839 841 843 844 845 846 847 848 850 851 852 852 853 853 854 856 858 859 860 861 862
831 833 832 830 823 821 833 843 843 844 840 829 824 816 796 787 780 767 767 769 769 772 772 770 770 767 769 772 769 769 770 770 772 772 772 771 771 771 770 770 771 772 773 774 775 776 777 780 783 785 788 790 792 794 795 797 799 801 803 804 806 808 809 810 811 813 816 818 820 822 824 826 828 829 832 834 836 838 841 842 843 844 845 846 848 849 850 851 852 853 854 855 857 858 859 860 861
825 832 825 822 828 827 828 837 843 847 840 821 815 813 803 799 790 771 767 769 766 767 767 767 767 766 767 766 763 764 766 769 771 769 770 770 769 769 768 767 768 768 770 771 772 773 775 777 779 782 785 787 789 791 791 794 795 797 799 800 802 804 805 807 809 811 813 815 817 819 821 823 825 826 828 831 833 835 838 839 840 841 842 844 847 848 849 850 851 852 853 855 856 857 859 859 860
818 819 814 818 831 831 829 835 838 840 838 822 813 813 805 796 787 774 770 771 766 763 762 764 765 763 763 761 759 761 764 766 767 766 767 767 767 768 767 766 766 766 768 768 770 771 772 775 777 779 781 783 786 787 788 790 792 793 795 797 799 801 803 805 807 809 811 812 814 816 818 820 821 824 825 828 830 832 835 837 838 839 841 843 845 846 848 849 850 851 853 854 856 857 858 859 859
819 817 814 817 822 822 823 827 827 828 831 822 814 813 798 780 774 771 769 767 764 762 761 761 759 758 761 762 760 761 763 764 764 765 765 765 766 766 766 766 765 766 766 767 768 769 770 772 774 776 778 780 782 783 784 787 788 790 792 794 796 798 800 802 804 807 808 809 811 812 814 816 818 821 823 825 827 830 833 835 836 837 839 841 843 845 846 848 849 850 852 853 855 856 857 858 858
819 818 819 820 820 821 822 820 818 820 822 819 817 809 784 767 766 765 762 760 758 757 758 757 758 759 761 761 761 762 762 763 763 764 764 764 764 764 764 765 765 766 766 765 766 767 768 770 771 773 775 776 778 779 781 784 785 788 789 791 793 795 798 800 802 804 805 806 808 809 811 813 815 818 820 823 825 828 830 832 834 836 838 840 841 843 845 846 848 849 851 853 854 855 856 857 858
809 809 811 812 812 818 823 820 816 817 816 813 816 807 777 760 764 762 757 756 754 756 759 758 761 762 759 758 761 763 762 761 762 762 763 763 763 764 764 764 765 765 765 764 765 765 767 768 769 771 772 774 775 777 779 781 783 785 787 789 791 793 795 797 799 801 802 803 805 806 808 810 813 815 817 820 822 826 828 830 832 834 836 838 840 841 843 845 847 848 850 852 853 854 855 856 857